Regional Weather Roundup
Issued by NWS Sioux Falls, SD

Home | Current Version | Previous Version | Text Only | Print | Product List | Glossary On
Versions: 1 2 3 4 5 6 7 8 9 10 11 12 13 14 15 16 17 18 19 20 21 22 23 24 25 26 27 28 29 30 31 32 33 34 35 36 37 38 39 40 41 42 43 44 45 46 47 48 49 50
000
ASUS43 KFSD 171710
RWRFSD

WEATHER ROUNDUP FOR SE SOUTH DAKOTA/SW MINNESOTA/NW IOWA
NATIONAL WEATHER SERVICE SIOUX FALLS SD
1100 AM CST SUN DEC 17 2017

NOTE: "FAIR" INDICATES FEW OR NO CLOUDS BELOW 12,000 FEET WITH NO
SIGNIFICANT WEATHER AND OR OBSTRUCTIONS TO VISIBILITY.


SDZ038>040-050-052>070-171800-
SOUTHEAST SOUTH DAKOTA

CITY           SKY/WX    TMP DP  RH WIND       PRES   REMARKS
BROOKINGS      CLOUDY    31  30  96 CALM      30.05S
CHAMBERLAIN    CLOUDY    36  35  95 NW6       30.07S
HURON          CLOUDY    36  33  89 MISG      30.06S
MADISON        FAIR      32  32 100 CALM      30.04S
MITCHELL       CLOUDY    35  32  88 NW6       30.08R
SIOUX FALLS    PTSUNNY   30  28  92 NE5       30.06R WCI  25
WINNER         CLOUDY    37  32  82 W5        30.06R
YANKTON        MOSUNNY   31  28  89 NW6       30.08R WCI  25
$$

MNZ071-072-080-081-089-090-097-098-171800-
SOUTHWEST MINNESOTA

CITY           SKY/WX    TMP DP  RH WIND       PRES   REMARKS
FAIRMONT       CLOUDY    26  22  84 NE6       30.05S WCI  19
JACKSON        MOSUNNY   28  23  80 N3        30.03S
LUVERNE        CLOUDY    28  27  93 NE3       30.06R FOG
MARSHALL       CLOUDY    28  25  88 CALM      30.07S FOG
MONTEVIDEO     CLOUDY    27  27 100 CALM      30.07F FOG
PIPESTONE      CLOUDY    27  27 100 N3        30.04R FOG
REDWOOD FALLS  CLOUDY    28  23  81 N3        30.07F
TRACY          CLOUDY    27  27 100 N3        30.06R FOG
WINDOM           N/A     27  16  63 N3        30.04S HAZE
WORTHINGTON    CLOUDY    26  25  96 N6        30.05R FOG     WCI  19
$$

IAZ001>003-012>014-020>022-031-032-NEZ013-014-SDZ071-171800-
NORTHWEST IOWA

CITY           SKY/WX    TMP DP  RH WIND       PRES   REMARKS
CHEROKEE       CLOUDY    32  28  88 CALM      30.05R FOG
ESTHERVILLE    CLOUDY    26  24  92 N7        30.04S FOG     WCI  18
LE MARS        CLOUDY    30  27  86 NE5       30.07R WCI  25
ORANGE CITY    CLOUDY    28  28 100 NE3       30.05R FOG
SHELDON        CLOUDY    28  28 100 NE8       30.03S FOG     WCI  20
SIOUX CITY     CLOUDY    31  27  85 N3        30.08R
SPENCER        CLOUDY    28  25  88 NE8       30.04S FOG     WCI  20
STORM LAKE     FOG       27  27 100 NE8       30.03R VSB 3/4 WCI  18
$$

ABBREVIATIONS USED IN REMARKS
   TC - TEMPERATURE IN CELSIUS
  WCI - WIND CHILL INDEX
   HX - HEAT INDEX
  VSB - VISIBILITY





USA.gov is the U.S. government's official web portal to all federal, state and local government web resources and services.